Вернуться в каталог

NOAA 16 DEB

АктивенSSO
NORAD 42382·DEBRIS·🇺🇸 United States

Запущен Sep 21, 2000 с Vandenberg Space Force Base

Loading…

Ближайшие Пролёты (ближайшие 24 часа)

TLE

СвежийSource: Space-Track

Эпоха: Sep 14, 2026, 05:52 UTC

1 42382U 00055SA  26257.24505404  .00003286  00000-0  12976-2 0  9991
2 42382  98.8969   1.3180 0035263 278.9935  80.7256 14.29407363541811

Отслеживайте NOAA 16 DEB в реальном времени с AllMySat

Download on the App Store